RH
47 46 35 21 19 24 27 31 32 31 25 25 21 15 21 20 18 17 16 16 16 15 15 13 11 11 13 14 15 15 12 10 10 13 12 12 13 14 8 5 4 10 16
31 24 20 20 23 26 28 30 36 32 25 26 30 24 16 19 22 20 22 20 19 18 17 15 14 14 13 14 14 15 16 16 15 15 12 12 15 11 5 4 4 6 10
34 20 17 25 28 29 30 31 36 34 32 20 24 28 25 18 16 15 16 17 19 22 23 21 16 15 15 14 15 15 15 15 15 16 13 10 15 8 5 4 4 3 7
20 15 21 32 31 31 32 31 35 32 31 28 30 29 24 22 16 16 16 16 14 13 15 20 26 22 15 16 15 14 14 14 14 12 12 10 14 8 5 5 5 5 4
24 16 29 33 32 31 32 33 34 34 33 31 29 28 24 24 28 24 18 16 15 14 13 13 16 28 30 19 16 16 15 14 13 12 11 8 13 8 5 5 5 6 6
22 20 32 31 30 30 30 32 35 35 34 32 26 26 24 22 28 31 31 29 28 27 27 24 17 16 23 31 27 18 16 15 12 12 12 8 8 7 5 5 5 5 5
18 23 29 27 28 26 27 26 26 31 33 36 36 33 27 26 25 27 28 31 33 32 32 33 33 18 16 20 27 29 25 18 15 12 11 8 8 6 6 5 5 4 4
23 28 29 28 25 26 27 23 20 24 25 26 27 26 27 26 26 27 28 28 30 31 30 32 34 30 26 28 27 20 22 28 23 17 13 9 8 7 7 7 6 5 4
32 32 34 32 26 27 25 20 17 17 17 17 23 26 26 25 24 23 22 25 27 30 32 31 32 34 31 34 35 30 18 17 25 25 18 16 12 9 8 6 6 5 5
39 40 37 37 28 28 26 23 18 14 14 16 19 19 17 16 16 16 15 17 18 17 19 25 23 24 27 33 34 38 31 37 23 20 25 21 18 18 16 12 8 7 5
38 34 31 31 32 30 28 23 20 16 14 13 14 15 14 12 11 10 10 9 10 12 12 11 15 16 16 17 21 31 40 43 47 40 20 21 26 23 20 19 18 15 11
38 31 29 27 25 24 29 24 18 12 11 10 10 9 9 10 10 8 8 8 9 11 10 9 9 10 12 12 16 22 26 34 39 41 47 31 27 29 26 28 31 26 20
37 30 30 29 28 24 21 17 15 11 8 8 7 10 11 11 11 11 11 14 16 18 17 16 16 14 12 13 15 14 20 26 28 33 38 46 41 41 42 39 34 32 36
33 30 32 32 27 28 29 26 24 21 15 13 18 18 15 16 24 23 21 21 22 22 22 22 25 24 22 17 15 16 16 18 25 30 36 46 58 54 46 44 47 45 41
34 35 32 30 29 26 36 35 28 25 26 26 26 27 28 26 24 24 24 24 25 26 26 26 28 29 36 34 27 23 22 23 20 22 32 39 45 59 64 56 52 54 53
36 43 41 33 29 28 30 38 36 33 32 32 32 28 26 25 25 25 27 30 30 30 29 29 31 31 32 35 43 45 43 38 37 29 26 31 38 48 54 58 64 63 66
39 35 34 34 31 29 31 37 42 48 44 52 32 26 26 25 27 31 34 33 32 30 31 36 34 36 41 50 55 63 61 57 57 54 44 41 35 38 48 57 61 63 65
33 33 34 32 32 31 34 47 47 34 36 27 28 28 28 31 36 36 35 33 33 30 31 31 36 38 36 37 40 42 45 52 58 57 62 57 55 55 44 49 56 60 63
34 35 33 32 30 31 27 31 31 27 25 26 29 32 35 35 34 35 34 36 37 39 39 39 40 37 36 35 30 34 41 46 46 44 43 51 48 46 56 61 58 59 63
37 39 34 32 30 30 29 30 30 30 32 34 37 38 34 34 35 33 33 35 39 42 41 37 34 35 32 30 23 21 25 36 45 49 50 49 47 44 44 54 50 53 68
47 41 36 32 32 33 35 36 34 38 43 45 42 38 36 34 36 40 41 41 41 40 36 32 28 27 23 19 13 13 13 14 20 29 37 44 49 51 47 43 41 40 54
53 48 41 40 42 41 40 38 44 48 46 44 41 39 36 36 37 37 37 35 30 25 22 19 16 15 14 14 13 11 10 13 14 16 20 25 34 37 44 49 49 43 39
57 48 48 47 50 52 52 54 54 52 45 41 40 38 40 42 39 38 39 34 26 22 18 16 14 14 13 16 17 14 14 14 13 14 17 15 14 17 24 33 44 55 53
59 45 45 54 55 57 57 56 53 45 41 42 42 42 43 41 39 37 31 27 26 20 17 18 20 22 23 19 18 21 24 22 16 15 15 16 19 26 27 34 37 48 60
51 51 54 60 59 59 58 52 46 45 44 44 46 44 42 36 34 31 28 24 22 24 26 26 25 25 22 22 22 21 24 26 27 25 14 14 14 19 27 28 41 51 61
54 54 57 61 61 56 53 49 45 48 52 52 53 49 42 38 34 30 30 32 32 32 31 29 28 29 28 26 21 17 20 16 17 17 16 14 14 15 19 43 46 60 62
Wind_Speed
11 14 17 18 17 15 14 13 15 16 16 11 8 7 6 8 9 10 13 14 15 15 15 15 14 12 11 11 11 11 10 9 8 10 10 11 8 4 2 2 2 2 5
13 14 16 19 17 15 14 12 12 15 16 12 11 8 7 8 9 11 11 12 12 13 13 14 15 15 15 15 13 12 12 10 10 10 10 8 5 4 2 2 2 4 6
15 15 15 15 13 13 12 9 9 12 14 13 11 10 7 6 7 9 10 11 11 11 12 13 14 14 14 14 14 14 13 12 12 11 9 7 4 4 3 2 3 4 7
16 16 13 11 10 11 12 9 9 8 9 9 9 10 8 7 7 8 8 8 9 11 11 11 12 13 13 13 13 14 14 13 12 11 9 6 5 5 4 3 4 4 6
17 13 10 10 7 8 8 7 8 8 8 11 11 12 11 12 11 9 10 10 9 9 11 11 10 10 12 13 13 14 14 13 13 14 13 7 5 6 6 6 5 5 5
12 9 10 9 6 5 6 6 6 7 8 10 12 12 11 10 9 11 10 10 11 12 13 14 13 10 9 10 11 14 15 14 12 13 11 9 6 7 8 9 8 8 8
12 9 12 8 4 4 4 4 3 3 5 8 8 9 9 10 10 9 8 8 9 8 8 10 11 12 10 8 9 10 13 14 14 13 12 10 9 9 10 12 12 11 11
10 11 10 8 3 4 4 3 3 2 3 4 6 5 6 7 8 7 8 8 8 7 7 8 9 9 9 7 8 10 12 13 12 11 12 12 12 13 15 16 16 16 16
12 12 9 7 5 3 3 2 2 2 2 3 6 6 6 7 7 8 7 7 8 9 9 9 9 9 9 6 6 9 11 14 15 14 12 14 15 16 17 18 19 19 19
14 13 10 8 7 5 5 5 4 5 5 7 7 6 5 6 7 8 9 10 9 10 11 11 10 11 12 11 9 9 9 11 15 16 17 16 15 16 18 20 21 22 21
16 16 13 11 9 8 9 7 6 7 8 9 9 10 9 9 10 10 10 11 12 12 13 13 14 16 16 16 15 12 13 13 16 17 19 19 18 18 17 19 22 24 26
18 17 15 14 12 12 13 11 10 10 12 12 12 12 12 12 11 12 12 13 14 15 16 15 16 15 17 18 17 16 16 17 18 21 23 22 20 21 22 23 23 24 26
20 18 17 16 16 15 11 9 10 12 14 14 15 14 14 14 13 14 14 14 15 16 18 19 20 21 20 20 20 21 20 19 21 23 24 25 27 27 27 25 26 29 30
21 20 19 18 20 17 13 13 15 16 17 17 17 17 17 17 17 17 15 16 18 19 21 22 22 23 24 25 25 26 26 26 25 26 29 28 31 31 30 31 30 30 32
21 20 18 19 18 18 15 16 18 20 19 20 20 19 18 19 17 18 18 19 22 23 26 28 28 27 27 28 29 30 31 32 33 32 31 33 34 35 36 38 37 36 35
22 20 20 18 17 19 19 16 17 22 22 21 20 19 19 20 19 19 21 23 26 28 28 30 32 33 33 33 32 34 36 38 39 40 38 37 37 39 41 41 43 43 40
24 21 19 17 17 18 17 19 19 20 20 20 20 19 20 20 20 22 25 29 30 31 32 34 35 36 36 36 37 39 40 41 43 46 46 42 42 43 44 44 46 45 46
22 21 20 18 14 16 18 21 22 21 21 21 22 23 22 22 25 28 29 30 32 36 37 39 40 41 42 42 40 41 43 46 48 50 51 50 48 47 48 47 48 49 50
20 21 23 20 18 18 19 21 24 25 24 25 24 23 25 28 31 32 34 35 37 39 41 42 43 44 46 46 48 49 48 49 50 52 54 54 54 53 50 53 53 52 53
21 21 22 21 21 21 22 23 25 26 26 25 26 27 30 33 35 36 39 41 43 44 45 46 47 49 50 50 52 55 57 55 56 57 56 55 56 55 55 56 56 58 58
25 26 21 23 24 25 25 23 25 26 26 27 29 31 33 36 38 41 43 45 46 46 47 49 51 53 56 56 59 61 63 63 62 63 61 60 60 60 59 60 63 64 63
29 28 23 25 26 27 27 28 30 28 29 30 33 35 37 41 43 45 48 50 50 51 54 57 59 61 63 63 66 66 68 68 70 70 69 67 65 65 65 66 67 68 70
27 30 30 30 28 29 30 32 32 32 33 34 37 40 42 44 47 49 50 49 53 56 59 61 64 67 68 69 72 75 78 78 76 73 73 74 76 74 71 68 70 73 73
26 27 33 31 31 33 34 34 34 34 36 38 43 45 47 49 50 51 52 54 56 59 62 66 68 71 72 75 78 82 85 85 81 77 78 81 82 79 77 72 72 74 75
26 27 30 31 33 35 34 35 35 36 39 43 45 47 50 52 53 54 57 60 63 67 70 72 75 78 80 83 86 87 85 81 83 84 88 90 91 86 80 79 75 79 81
29 30 30 30 33 34 35 36 36 41 44 47 49 52 55 56 57 60 62 63 67 71 74 77 81 83 88 91 92 91 89 91 93 94 93 87 79 76 77 79 81 85 85
Wind_Direction
338 317 320 329 349 360 4 11 10 13 7 13 351 13 21 19 14 13 19 18 14 13 12 9 8 359 342 332 326 322 320 324 323 325 334 336 329 315 332 319 287 197 192
321 315 320 334 349 355 355 3 17 26 20 13 354 356 11 17 16 11 20 19 11 9 9 8 8 3 2 356 345 330 325 324 322 320 324 331 315 282 267 287 283 232 221
300 306 312 336 344 349 353 349 23 24 24 27 31 14 356 355 1 4 8 7 4 2 3 4 8 4 1 356 347 340 341 336 323 318 324 322 278 254 264 287 288 255 237
302 305 318 332 344 350 354 353 15 13 21 16 10 10 12 7 5 4 1 1 359 357 353 353 1 2 3 360 347 341 342 342 329 323 321 314 269 252 263 286 299 290 267
291 300 318 318 336 349 348 356 14 7 1 355 358 359 3 10 16 12 10 15 12 3 356 349 348 352 0 4 353 344 344 341 328 316 312 307 260 256 260 273 285 293 286
286 287 305 307 327 340 325 351 11 358 350 344 349 351 354 356 358 2 9 14 11 13 9 2 356 348 346 356 354 348 342 337 339 330 312 300 279 255 260 268 267 277 286
282 280 303 302 317 322 332 7 15 1 335 345 340 342 348 347 345 352 346 353 357 355 358 356 354 355 350 351 348 344 339 336 336 334 315 298 280 266 263 266 271 273 277
274 283 295 299 305 303 338 353 10 13 325 333 314 317 328 329 331 342 342 342 339 345 347 341 341 340 335 344 340 334 323 321 324 323 314 295 285 283 282 275 269 271 272
272 272 275 278 274 289 313 305 324 312 323 282 279 296 306 320 323 329 335 328 333 334 329 330 325 318 318 318 323 327 312 306 306 308 304 299 294 288 287 286 281 273 272
275 265 255 251 246 256 264 274 278 279 263 252 266 283 302 314 317 315 322 323 328 333 330 321 321 317 316 312 301 305 307 304 301 294 290 288 289 291 292 290 285 283 278
268 260 247 240 232 249 257 260 252 255 263 265 282 296 299 298 304 301 305 315 322 323 320 319 316 318 323 326 324 313 296 295 293 293 287 282 281 282 283 283 284 284 282
262 262 259 250 229 221 237 242 244 250 255 264 272 298 303 299 302 303 313 320 323 323 320 314 308 307 311 309 307 305 302 292 286 289 288 280 277 279 278 277 277 277 277
256 259 251 249 249 242 247 247 258 250 257 266 278 280 291 289 292 296 300 308 309 309 306 305 307 303 297 297 298 296 294 289 291 292 289 277 272 273 272 268 272 275 275
252 255 258 247 246 251 251 259 259 260 259 270 281 279 282 285 293 297 299 300 300 300 299 300 298 297 298 294 291 292 290 287 283 280 280 281 274 272 269 269 269 267 269
259 260 258 254 251 258 256 258 264 267 272 278 284 287 286 287 290 290 295 296 296 300 303 302 298 294 292 291 289 286 285 286 282 278 274 276 276 272 271 272 273 272 267
261 261 262 265 268 271 274 273 269 271 271 276 283 285 286 288 288 291 295 297 296 296 295 294 292 289 288 287 286 288 288 287 286 282 279 276 275 274 274 273 276 275 274
249 255 259 262 264 270 276 274 272 272 273 275 281 283 284 287 288 290 295 297 297 297 295 293 289 289 287 287 290 289 287 286 287 287 284 279 277 275 274 273 274 274 274
253 260 266 268 267 264 265 269 274 280 274 276 275 277 281 287 292 294 292 291 293 294 293 292 292 291 291 290 286 282 286 289 290 289 287 284 281 278 276 275 272 272 274
253 259 266 267 264 259 258 260 267 272 272 270 274 280 285 289 290 290 290 287 284 282 282 284 287 288 288 288 290 290 286 282 280 280 282 282 281 281 279 277 274 272 270
262 261 266 267 267 262 262 259 261 263 264 269 275 281 285 286 288 288 287 286 285 286 288 289 288 287 287 287 288 288 288 286 283 282 279 276 275 275 277 274 273 272 270
265 268 261 268 270 268 266 263 260 258 265 272 278 279 281 283 282 282 281 282 284 286 286 286 288 289 291 292 293 293 293 291 289 286 284 281 279 277 272 270 271 270 268
263 266 261 264 266 267 266 263 267 272 273 277 278 280 281 281 282 284 287 291 295 295 296 296 297 297 297 295 292 290 290 291 290 290 289 289 286 280 275 271 266 266 267
252 263 266 265 264 262 264 268 270 271 273 275 279 281 282 285 287 288 290 293 293 295 296 296 294 293 292 295 297 293 290 288 285 286 288 287 286 284 279 273 268 265 263
250 253 257 263 263 263 266 268 270 274 278 284 286 288 288 287 288 289 291 292 293 292 291 291 291 293 294 292 292 294 294 292 289 286 287 287 286 283 280 273 267 265 262
256 250 252 258 263 265 266 269 274 282 288 290 291 288 287 288 289 291 291 290 289 289 290 292 295 297 297 297 296 294 293 295 295 293 286 283 281 281 278 274 265 261 263
255 252 257 261 263 267 273 280 285 287 289 289 290 289 289 290 290 288 289 289 289 292 294 295 297 300 298 296 294 295 297 297 297 296 295 292 286 280 273 268 264 261 262